• Join FlightAware (Why Join?)
  • Login
  • US Flag GB Flag 
12:34 EDT


 

Airport Tracker/Info


-or-


 

Live Flight TrackerFlight Track Log ✈ UAL4550 ✈ 24-Apr-2013 ✈ KIAH - KMLU

Flight Track Log - Related Links

Times and Time Zones

All times are in EDT time to prevent confusion due to time zone crossing. See the UAL4550 flight status page for this flight to view local times or setup timezone preferences in your user account.

Time Position Orientation Groundspeed Altitude Reporting Facility
EDT Latitude Longitude Course Direction KTS MPH feet Rate Location/Type
20:21 30.6456 -94.8103 32° Northeast  Level FlightAware Approximate
20:22 30.7299 -94.7461 34° Northeast  Level FlightAware Approximate
20:23 30.8130 -94.6796 34° Northeast  Level FlightAware Approximate
20:24 30.8965 -94.6139 34° Northeast  Level FlightAware Approximate
20:25 30.9804 -94.5486 34° Northeast  Level FlightAware Approximate
20:26 31.0650 -94.4846 33° Northeast  Level FlightAware Approximate
20:27 31.1483 -94.4184 41° Northeast  Level FlightAware Approximate
20:28 31.2307 -94.3527 41° Northeast  Level FlightAware Approximate
20:29 31.3131 -94.2857 30° Northeast  Level FlightAware Approximate
20:30 31.3965 -94.2194 34° Northeast  Level FlightAware Approximate
20:31 31.4811 -94.1551 34° Northeast  Level FlightAware Approximate
20:32 31.5644 -94.0885 34° Northeast  Level FlightAware Approximate
20:33 31.6481 -94.0223 33° Northeast  Level FlightAware Approximate
20:34 31.7331 -93.9586 33° Northeast  Level FlightAware Approximate
20:35 31.7976 -93.8715 60° Northeast  Level FlightAware Approximate
20:36 31.8354 -93.7616 65° Northeast  Level FlightAware Approximate
20:37 31.8778 -93.6539 66° East  Level FlightAware Approximate
20:38 31.9185 -93.5453 66° East  Level FlightAware Approximate
20:39 31.9592 -93.4366 66° East  Level FlightAware Approximate
20:40 32.0019 -93.3289 65° Northeast  Level FlightAware Approximate
20:41 32.0450 -93.2214 65° Northeast  Level FlightAware Approximate
20:42 32.0880 -93.1137 65° Northeast  Level FlightAware Approximate
20:43 32.1309 -93.0060 65° Northeast  Level FlightAware Approximate
20:44 32.1763 -92.8997 63° Northeast  Level FlightAware Approximate
20:45 32.2124 -92.7919 59° Northeast  Level FlightAware Approximate
20:46 32.2605 -92.6873 67° East  Level FlightAware Approximate
20:47 32.2998 -92.5775 67° East  Level FlightAware Approximate
20:48 32.3391 -92.4676 67° East  Level FlightAware Approximate
20:49 32.3790 -92.3580 67° East  Level FlightAware Approximate
20:50 32.4175 -92.2476 68° East  Level FlightAware Approximate
20:51 32.4580 -92.1383 65° Northeast  Level FlightAware Approximate
20:52 32.5000 -92.0333 65° Northeast  Level FlightAware Approximate